Regional Weather Roundup
Issued by NWS

Home | Current Version | Previous Version | Graphics & Text | Print | Product List | Glossary On
Versions: 1 2 3 4 5 6 7 8 9 10 11 12 13 14 15 16 17 18 19 20 21 22 23 24 25 26 27 28 29 30 31 32 33 34 35 36 37 38 39 40 41 42 43 44 45 46 47 48 49 50
000
ASUS43 KFSD 190902
RWRSD

WEATHER ROUNDUP FOR SOUTH DAKOTA
NATIONAL WEATHER SERVICE SIOUX FALLS SD
300 AM CST SUN FEB 19 2017

NOTE: "FAIR" INDICATES FEW OR NO CLOUDS BELOW 12,000 FEET WITH NO
SIGNIFICANT WEATHER AND/OR OBSTRUCTIONS TO VISIBILITY.


SDZ001>005-009-010-012>017-191000-
NORTHWEST AND NORTH CENTRAL SOUTH DAKOTA

CITY           SKY/WX    TMP DP  RH WIND       PRES   REMARKS
BUFFALO          N/A     42  33  70 SE7       29.48F
FAITH            N/A     38  33  82 S15       29.58F
MOBRIDGE       CLOUDY    39  31  72 SE13      29.61F
$$

SDZ012>016-024>037-041>051-057-063-072>074-191000-
SOUTHWEST AND SOUTH CENTRAL SOUTH DAKOTA

CITY           SKY/WX    TMP DP  RH WIND       PRES   REMARKS
RAPID CTY ARPT PTCLDY    41  30  65 CALM      29.60S
PIERRE         PTCLDY    41  32  70 SE13      29.66S
CUSTER         CLOUDY    41  26  55 SW5       29.64F
ELLSWORTH AFB  PTCLDY    45  31  56 S6        29.58F
PHILIP         PTCLDY    48  34  58 S5        29.62S
PINE RIDGE     CLOUDY    43  33  68 S12       29.62F
SPEARFISH      FAIR      43  30  61 SE10      29.58F
WINNER         FAIR      50  34  54 S12       29.68S
$$

SDZ004>011-016>023-039-040-191000-
NORTHEAST SOUTH DAKOTA

CITY           SKY/WX    TMP DP  RH WIND       PRES   REMARKS
ABERDEEN       PTCLDY    38  32  79 S14       29.72F
WATERTOWN      CLOUDY    38  35  89 S10       29.78S
BROOKINGS      PTCLDY    41  37  86 S14       29.80S
SISSETON         N/A     36  35  96 SE6       29.78S
$$

SDZ017-020-022-023-036>040-048>070-191000-
SOUTHEAST SOUTH DAKOTA

CITY           SKY/WX    TMP DP  RH WIND       PRES   REMARKS
SIOUX FALLS    CLOUDY    36  34  92 NE5       29.82R
HURON          CLOUDY    37  34  89 SE8       29.74F
CHAMBERLAIN    PTCLDY    40  35  84 SE8       29.70S
MITCHELL       CLOUDY    39  34  82 SE9       29.76F
YANKTON        CLOUDY    39  30  70 E9        29.77F
$$

ABBREVIATIONS USED IN REMARKS
   TC - TEMPERATURE IN CELSIUS
  WCI - WIND CHILL INDEX
   HX - HEAT INDEX
  VSB - VISIBILITY




USA.gov is the U.S. government's official web portal to all federal, state and local government web resources and services.